Simultaneous Nadir Overpasses (SNOs) Predictions

Prediction of SNOs between AQUA and GOES-15 Satellite Orbit:

Table of predicted SNOs for the next 14.0 days since TLE Epoch: 7/24/2021
Index Date Time (AQUA) AQUA Lat,Lon GOES-15 Lat,Lon Distance(km) Time Diff (sec)
1 07/24/2021 10:07:04 -0.08,-127.92 -0.12,-127.69 25.57 80
2 07/26/2021 09:54:53 -0.71,-124.96 -0.12,-127.76 318.21 80
3 07/26/2021 22:16:17 -0.42,-130.15 0.13,-127.66 283.23 80
4 07/28/2021 22:04:07 0.27,-127.21 0.13,-127.73 60.65 80
5 07/30/2021 21:51:56 0.90,-124.25 0.13,-127.80 404.19 80
6 07/31/2021 10:13:11 0.16,-129.41 -0.15,-127.94 168.06 80
7 08/02/2021 10:01:00 -0.48,-126.46 -0.15,-128.00 174.78 80
8 08/02/2021 22:22:24 -0.65,-131.65 0.17,-127.90 426.95 80
9 08/04/2021 22:10:13 0.00,-128.70 0.17,-127.95 84.92 80
10 08/06/2021 21:58:02 0.66,-125.74 0.17,-128.00 256.53 80
